KA8DUX-2 Weather Reports


Display with metric or nautical units.
time (UTC)temp
F
wind
direction
speed
MPH
gust
MPH
rain 1hr
in
rain 24hr
in
rain mn
in
humidity
%
barometer
mb
20260902163227 90 152 2.0 3.0 0.00 0.00 0.00 72 1013.0
20260902162726 88 137 1.0 1.0 0.00 0.00 0.00 75 1013.0
20260902162221 89 132 1.0 2.0 0.00 0.00 0.00 74 1012.9
20260902161716 89 161 1.0 1.0 0.00 0.00 0.00 74 1013.1
20260902161211 88 183 0.0 1.0 0.00 0.00 0.00 75 1013.1
20260902160709 88 155 0.0 1.0 0.00 0.00 0.00 77 1013.2
20260902160202 87 128 0.0 0.0 0.00 0.00 0.00 77 1013.2
20260902155700 89 259 3.0 5.0 0.00 0.00 0.00 73 1013.3
20260902155159 87 178 1.0 1.0 0.00 0.00 0.00 76 1013.2
20260902154654 87 127 0.0 1.0 0.00 0.00 0.00 76 1013.1
20260902154149 87 137 0.0 0.0 0.00 0.00 0.00 76 1012.9
20260902153649 86 155 1.0 1.0 0.00 0.00 0.00 78 1013.0
20260902153143 86 128 0.0 0.0 0.00 0.00 0.00 79 1013.2
20260902152640 86 207 1.0 2.0 0.00 0.00 0.00 78 1013.2
20260902152135 85 135 0.0 1.0 0.00 0.00 0.00 80 1013.4
20260902151630 85 140 0.0 0.0 0.00 0.00 0.00 80 1013.3
20260902151125 86 162 1.0 1.0 0.00 0.00 0.00 79 1013.4
20260902150620 84 129 0.0 0.0 0.00 0.00 0.00 81 1013.4
20260902150116 85 171 3.0 3.0 0.00 0.00 0.00 80 1013.4
20260902145616 85 156 0.0 0.0 0.00 0.00 0.00 79 1013.5
20260902145115 85 148 2.0 2.0 0.00 0.00 0.00 80 1013.6
20260902144613 84 119 2.0 2.0 0.00 0.00 0.00 81 1013.5
20260902144112 84 143 0.0 1.0 0.00 0.00 0.00 82 1013.5
20260902143607 83 124 0.0 0.0 0.00 0.00 0.00 84 1013.4
20260902143103 83 136 1.0 1.0 0.00 0.00 0.00 83 1013.3
20260902142558 83 104 1.0 1.0 0.00 0.00 0.00 84 1013.5
20260902142053 83 133 0.0 0.0 0.00 0.00 0.00 84 1013.5
20260902141548 82 130 0.0 0.0 0.00 0.00 0.00 86 1013.5
20260902141043 82 121 0.0 0.0 0.00 0.00 0.00 86 1013.6
20260902140544 81 56 1.0 1.0 0.00 0.00 0.00 87 1013.7
20260902140039 80 150 0.0 0.0 0.00 0.00 0.00 88 1013.7
20260902135538 81 279 2.0 2.0 0.00 0.00 0.00 88 1013.9
20260902135039 80 129 0.0 0.0 0.00 0.00 0.00 88 1013.5
20260902134535 81 123 1.0 1.0 0.00 0.00 0.00 87 1013.6
20260902134035 82 89 1.0 1.0 0.00 0.00 0.00 85 1012.9
20260902133529 80 154 1.0 2.0 0.00 0.00 0.00 87 1012.3
20260902133024 80 157 2.0 2.0 0.00 0.00 0.00 88 1012.4
20260902132519 79 158 1.0 2.0 0.00 0.00 0.00 89 1012.7
20260902132015 79 196 0.0 1.0 0.00 0.00 0.00 89 1012.7
20260902131511 78 148 1.0 1.0 0.00 0.00 0.00 90 1012.8
20260902131010 78 240 1.0 2.0 0.00 0.00 0.00 91 1012.7
20260902130506 78 164 0.0 1.0 0.00 0.00 0.00 92 1012.9
20260902130001 78 161 1.0 1.0 0.00 0.00 0.00 92 1013.0
20260902125457 77 193 1.0 2.0 0.00 0.00 0.00 93 1013.0
20260902124953 77 138 1.0 1.0 0.00 0.00 0.00 94 1013.0
20260902124449 77 125 0.0 0.0 0.00 0.00 0.00 95 1013.2
20260902123943 76 167 0.0 0.0 0.00 0.00 0.00 95 1013.2
20260902123440 76 133 0.0 0.0 0.00 0.00 0.00 96 1013.3
20260902122938 76 154 0.0 0.0 0.00 0.00 0.00 97 1013.3
20260902122434 75 125 0.0 0.0 0.00 0.00 0.00 97 1013.3
20260902121930 75 150 1.0 1.0 0.00 0.00 0.00 98 1013.5
20260902121425 75 135 0.0 1.0 0.00 0.00 0.00 98 1013.4
20260902120924 75 131 0.0 1.0 0.00 0.00 0.00 99 1013.3
20260902120421 74 132 0.0 0.0 0.00 0.00 0.00 99 1013.7
20260902115920 74 132 0.0 0.0 0.00 0.00 0.00 99 1013.4
20260902115416 74 209 3.0 3.0 0.00 0.00 0.00 99 1013.4
20260902114913 74 164 0.0 0.0 0.00 0.00 0.00 99 1013.6
20260902114409 73 142 0.0 0.0 0.00 0.00 0.00 99 1013.5
20260902113903 73 149 0.0 0.0 0.00 0.00 0.00 99 1013.5
20260902113359 73 124 0.0 0.0 0.00 0.00 0.00 99 1013.6
20260902112858 73 127 0.0 0.0 0.00 0.00 0.00 99 1013.5
20260902112354 73 121 0.0 0.0 0.00 0.00 0.00 99 1013.5
20260902111850 73 149 0.0 0.0 0.00 0.00 0.00 99 1013.5
20260902111347 73 137 0.0 0.0 0.00 0.00 0.00 99 1013.4
20260902110842 73 130 0.0 0.0 0.00 0.00 0.00 99 1013.2
20260902110338 73 140 0.0 1.0 0.00 0.00 0.00 99 1013.4
20260902105837 73 108 0.0 0.0 0.00 0.00 0.00 99 1013.5
20260902105332 74 147 0.0 1.0 0.00 0.00 0.00 99 1013.5
20260902104827 74 112 0.0 0.0 0.00 0.00 0.00 99 1013.3
20260902104324 74 130 0.0 0.0 0.00 0.00 0.00 99 1013.3
20260902103823 74 105 0.0 1.0 0.00 0.00 0.00 98 1013.4
20260902103318 74 128 0.0 0.0 0.00 0.00 0.00 98 1013.2
20260902102814 74 133 0.0 0.0 0.00 0.00 0.00 98 1013.3
20260902102312 74 130 0.0 0.0 0.00 0.00 0.00 98 1013.3
20260902101807 75 132 1.0 1.0 0.00 0.00 0.00 98 1013.2
20260902101301 75 115 0.0 0.0 0.00 0.00 0.00 97 1013.4
20260902100800 75 128 0.0 0.0 0.00 0.00 0.00 97 1013.4
20260902100255 75 114 0.0 0.0 0.00 0.00 0.00 97 1013.6
20260902095749 75 119 0.0 0.0 0.00 0.00 0.00 97 1013.1
20260902095244 75 124 0.0 0.0 0.00 0.00 0.00 96 1013.1
20260902094739 75 126 0.0 0.0 0.00 0.00 0.00 96 1013.2
20260902094235 76 153 0.0 1.0 0.00 0.00 0.00 96 1013.2
20260902093734 76 131 0.0 0.0 0.00 0.00 0.00 96 1012.9
20260902093229 76 128 0.0 0.0 0.00 0.00 0.00 96 1013.1
20260902092729 76 151 0.0 1.0 0.00 0.00 0.00 96 1013.2
20260902092224 76 254 1.0 2.0 0.00 0.00 0.00 96 1013.0
20260902091724 75 144 0.0 0.0 0.00 0.00 0.00 97 1013.1
20260902091220 75 172 0.0 0.0 0.00 0.00 0.00 97 1013.3
20260902090716 75 134 0.0 0.0 0.00 0.00 0.00 97 1013.4
20260902090215 75 138 0.0 0.0 0.00 0.00 0.00 97 1013.2
20260902085710 75 144 0.0 0.0 0.00 0.00 0.00 97 1013.0
20260902085205 75 141 0.0 0.0 0.00 0.00 0.00 97 1012.9
20260902084701 76 150 0.0 0.0 0.00 0.00 0.00 97 1012.9
20260902084157 76 140 0.0 0.0 0.00 0.00 0.00 97 1012.8
20260902083652 76 138 0.0 0.0 0.00 0.00 0.00 97 1012.7
20260902083151 76 143 0.0 0.0 0.00 0.00 0.00 98 1012.8
20260902082646 76 138 0.0 0.0 0.00 0.00 0.00 98 1012.6
20260902082144 76 139 0.0 0.0 0.00 0.00 0.00 98 1012.5
20260902081639 76 126 0.0 1.0 0.00 0.00 0.00 98 1012.4
20260902081134 76 136 0.0 0.0 0.00 0.00 0.00 98 1012.6
20260902080629 76 169 0.0 0.0 0.00 0.00 0.00 98 1012.5
20260902080126 75 184 1.0 2.0 0.00 0.00 0.00 99 1012.6
20260902075625 75 137 0.0 0.0 0.00 0.00 0.00 99 1012.6
20260902075122 75 143 0.0 0.0 0.00 0.00 0.00 99 1012.8
20260902074617 76 169 0.0 0.0 0.00 0.00 0.00 99 1012.8
20260902074112 75 162 0.0 0.0 0.00 0.00 0.00 99 1012.9
20260902073607 75 139 0.0 0.0 0.00 0.00 0.00 99 1012.9
20260902073103 75 158 0.0 0.0 0.00 0.00 0.00 99 1013.1
20260902072559 75 142 0.0 0.0 0.00 0.00 0.00 99 1012.9
20260902072056 76 142 0.0 0.0 0.00 0.00 0.00 99 1012.7
20260902071555 76 134 0.0 0.0 0.00 0.00 0.00 99 1013.0
20260902071051 75 136 0.0 0.0 0.00 0.00 0.00 99 1013.0
20260902070546 75 140 0.0 0.0 0.00 0.00 0.00 99 1012.8
20260902070041 75 137 0.0 0.0 0.00 0.00 0.00 99 1012.8
20260902065535 75 133 0.0 0.0 0.00 0.00 0.00 99 1012.8
20260902065030 75 149 0.0 0.0 0.00 0.00 0.00 99 1012.9
20260902064526 75 148 0.0 0.0 0.00 0.00 0.00 99 1012.9
20260902064022 75 144 0.0 0.0 0.00 0.00 0.00 99 1013.0
20260902063521 75 142 0.0 0.0 0.00 0.00 0.00 99 1012.8
20260902063016 75 135 0.0 0.0 0.00 0.00 0.00 99 1012.8
20260902062515 75 142 0.0 0.0 0.00 0.00 0.00 99 1012.7
20260902062011 75 155 0.0 0.0 0.00 0.00 0.00 99 1012.5
20260902061505 75 154 0.0 0.0 0.00 0.00 0.00 99 1012.6
20260902061001 75 147 0.0 0.0 0.00 0.00 0.00 99 1012.9
20260902060457 75 149 0.0 0.0 0.00 0.00 0.00 99 1012.5
20260902055953 75 138 0.0 0.0 0.00 0.00 0.00 99 1012.4
20260902055449 75 134 0.0 0.0 0.00 0.00 0.00 98 1012.5
20260902054944 75 136 0.0 0.0 0.00 0.00 0.00 98 1012.6
20260902054439 74 142 0.0 0.0 0.00 0.00 0.00 98 1012.5
20260902053934 74 144 0.0 0.0 0.00 0.00 0.00 98 1012.5
20260902053430 74 130 0.0 0.0 0.00 0.00 0.00 97 1012.6
20260902052928 74 127 0.0 0.0 0.00 0.00 0.00 97 1012.6
20260902052424 74 129 0.0 0.0 0.00 0.00 0.00 97 1012.6
20260902051919 74 133 0.0 0.0 0.00 0.00 0.00 97 1012.8
20260902051414 74 149 0.0 0.0 0.00 0.00 0.00 97 1012.6
20260902050913 74 135 0.0 0.0 0.00 0.00 0.00 97 1012.7
20260902050413 74 130 0.0 0.0 0.00 0.00 0.00 97 1012.7
20260902045908 74 137 0.0 0.0 0.00 0.00 0.00 97 1012.8
20260902045403 74 126 0.0 0.0 0.00 0.00 0.00 97 1013.0
20260902044859 74 131 0.0 0.0 0.00 0.00 0.00 97 1013.0
20260902044354 74 133 0.0 0.0 0.00 0.00 0.00 97 1012.7
20260902043854 74 128 0.0 0.0 0.00 0.00 0.00 97 1012.8
20260902043350 74 126 0.0 0.0 0.00 0.00 0.00 96 1012.6
20260902042845 74 130 0.0 0.0 0.00 0.00 0.00 96 1012.8
20260902042344 74 127 0.0 0.0 0.00 0.00 0.00 96 1012.6
20260902041840 74 130 0.0 0.0 0.00 0.00 0.00 96 1012.7
20260902041340 75 127 0.0 0.0 0.00 0.00 0.00 96 1012.7
20260902040838 75 130 0.0 0.0 0.00 0.00 0.00 96 1012.9
20260902040334 75 131 0.0 0.0 0.00 0.00 0.00 96 1013.0
20260902035832 75 130 0.0 0.0 0.00 0.00 0.00 96 1012.8
20260902035328 75 131 0.0 0.0 0.00 0.00 0.00 96 1013.2
20260902034827 75 139 0.0 0.0 0.00 0.00 0.00 95 1013.2
20260902034323 75 135 0.0 0.0 0.00 0.00 0.00 95 1013.1
20260902033820 75 122 0.0 0.0 0.00 0.00 0.00 95 1012.8
20260902033316 75 124 0.0 0.0 0.00 0.00 0.00 95 1012.8
20260902032815 75 113 0.0 0.0 0.00 0.00 0.00 95 1012.8
20260902032310 75 146 0.0 0.0 0.00 0.00 0.00 95 1012.9
20260902031809 75 125 0.0 0.0 0.00 0.00 0.00 95 1012.9
20260902031305 75 128 0.0 0.0 0.00 0.00 0.00 94 1013.0
20260902030801 75 122 0.0 0.0 0.00 0.00 0.00 94 1013.0
20260902030255 75 128 0.0 0.0 0.00 0.00 0.00 94 1013.3
20260902025755 76 121 0.0 0.0 0.00 0.00 0.00 94 1013.0
20260902025250 76 124 0.0 0.0 0.00 0.00 0.00 93 1013.1
20260902024744 76 127 0.0 0.0 0.00 0.00 0.00 93 1013.1
20260902024240 76 134 0.0 0.0 0.00 0.00 0.00 93 1013.0
20260902023736 76 128 0.0 0.0 0.00 0.00 0.00 92 1012.9
20260902023231 76 134 0.0 0.0 0.00 0.00 0.00 92 1013.1
20260902022730 76 128 0.0 0.0 0.00 0.00 0.00 92 1013.2
20260902022226 76 128 0.0 0.0 0.00 0.00 0.00 91 1013.3
20260902021721 77 116 0.0 0.0 0.00 0.00 0.00 91 1012.9
20260902021215 77 124 0.0 0.0 0.00 0.00 0.00 90 1012.9
20260902020712 77 134 0.0 0.0 0.00 0.00 0.00 89 1013.1
20260902020208 77 129 0.0 0.0 0.00 0.00 0.00 89 1013.1
20260902015703 77 141 0.0 0.0 0.00 0.00 0.00 89 1013.1
20260902015159 77 152 0.0 0.0 0.00 0.00 0.00 89 1012.8
20260902014655 77 127 0.0 0.0 0.00 0.00 0.00 89 1013.0
20260902014150 77 129 0.0 0.0 0.00 0.00 0.00 88 1013.0
20260902013649 77 130 0.0 0.0 0.00 0.00 0.00 87 1013.1
20260902013145 78 135 0.0 0.0 0.00 0.00 0.00 87 1013.0
20260902012640 78 131 0.0 0.0 0.00 0.00 0.00 87 1012.9
20260902012136 78 133 0.0 0.0 0.00 0.00 0.00 86 1012.7
20260902011631 78 135 0.0 0.0 0.00 0.00 0.00 86 1012.6
20260902011130 78 126 0.0 0.0 0.00 0.00 0.00 86 1012.4
20260902010625 79 134 0.0 0.0 0.00 0.00 0.00 85 1012.4
20260902010121 79 133 0.0 0.0 0.00 0.00 0.00 84 1012.5
20260902005619 79 133 0.0 0.0 0.00 0.00 0.00 84 1012.4
20260902005115 79 134 0.0 0.0 0.00 0.00 0.00 84 1012.5
20260902004614 80 126 0.0 1.0 0.00 0.00 0.00 84 1012.4
20260902004109 80 158 0.0 1.0 0.00 0.00 0.00 84 1012.2
20260902003605 80 153 0.0 1.0 0.00 0.00 0.00 85 1012.4
20260902003100 80 133 0.0 0.0 0.00 0.00 0.00 84 1012.6
20260902002555 80 131 0.0 0.0 0.00 0.00 0.00 84 1012.4
20260902002050 80 132 0.0 0.0 0.00 0.00 0.00 84 1012.6
20260902001545 81 138 1.0 1.0 0.00 0.00 0.00 83 1012.9
20260902001040 81 134 0.0 0.0 0.00 0.00 0.00 83 1012.7
20260902000534 81 137 1.0 1.0 0.00 0.00 0.00 83 1012.7
20260902000030 81 169 1.0 1.0 0.00 0.00 0.00 83 1012.6
20260901235524 82 210 0.0 1.0 0.00 0.00 0.00 83 1012.9
20260901235020 82 157 0.0 0.0 0.00 0.00 0.00 83 1012.9
20260901234518 82 176 1.0 2.0 0.00 0.00 0.00 83 1013.0
20260901234014 82 193 0.0 1.0 0.00 0.00 0.00 83 1012.8
20260901233508 82 130 0.0 0.0 0.00 0.00 0.00 82 1013.2
20260901233005 82 226 2.0 2.0 0.00 0.00 0.00 82 1013.2
20260901232500 82 130 1.0 2.0 0.00 0.00 0.00 81 1013.4
20260901231954 83 151 1.0 1.0 0.00 0.00 0.00 81 1013.1
20260901231451 83 131 0.0 0.0 0.00 0.00 0.00 81 1013.2
20260901230948 83 165 2.0 2.0 0.00 0.00 0.00 80 1013.2
20260901230447 83 172 0.0 0.0 0.00 0.00 0.00 80 1013.0
20260901225942 83 224 1.0 2.0 0.00 0.00 0.00 80 1012.9
20260901225442 83 145 0.0 0.0 0.00 0.00 0.00 80 1012.9
20260901224936 84 198 1.0 2.0 0.00 0.00 0.00 79 1012.7
20260901224433 84 144 2.0 2.0 0.00 0.00 0.00 79 1013.1
20260901223929 84 177 2.0 3.0 0.00 0.00 0.00 78 1012.6
20260901223424 84 144 0.0 0.0 0.00 0.00 0.00 78 1012.8
20260901222920 84 169 0.0 2.0 0.00 0.00 0.00 77 1012.9
20260901222416 84 138 0.0 0.0 0.00 0.00 0.00 77 1012.8
20260901221911 84 187 0.0 1.0 0.00 0.00 0.00 77 1013.2
20260901221408 84 294 1.0 1.0 0.00 0.00 0.00 76 1013.4
20260901220902 85 243 4.0 7.0 0.00 0.00 0.00 76 1013.4
20260901220401 85 196 3.0 5.0 0.00 0.00 0.00 76 1013.0
20260901215900 86 147 1.0 1.0 0.00 0.00 0.00 76 1013.5
20260901215359 86 223 1.0 1.0 0.00 0.00 0.00 76 1013.4
20260901214858 86 143 1.0 2.0 0.00 0.00 0.00 76 1013.1
20260901214357 86 143 0.0 1.0 0.00 0.00 0.00 76 1013.3
20260901213856 87 145 1.0 1.0 0.00 0.00 0.00 76 1013.1
20260901213352 87 126 1.0 1.0 0.00 0.00 0.00 75 1013.0
20260901212851 87 142 0.0 0.0 0.00 0.00 0.00 77 1013.1
20260901212347 87 227 2.0 2.0 0.00 0.00 0.00 76 1012.9
20260901211843 88 134 3.0 3.0 0.00 0.00 0.00 76 1013.1
20260901211338 88 211 2.0 3.0 0.00 0.00 0.00 77 1012.9
20260901210834 89 141 2.0 2.0 0.00 0.00 0.00 77 1013.1
20260901210329 88 150 1.0 2.0 0.00 0.00 0.00 78 1013.1
20260901205825 88 168 3.0 5.0 0.00 0.00 0.00 77 1012.8
20260901205320 88 213 5.0 8.0 0.00 0.00 0.00 77 1012.8
20260901204815 89 144 2.0 2.0 0.00 0.00 0.00 75 1012.7
20260901204312 89 152 2.0 3.0 0.00 0.00 0.00 75 1012.7
20260901203811 88 226 3.0 5.0 0.00 0.00 0.00 77 1012.8
20260901203305 89 213 3.0 5.0 0.00 0.00 0.00 77 1012.9
20260901202800 89 214 1.0 1.0 0.00 0.00 0.00 76 1012.7
20260901202255 88 163 1.0 2.0 0.00 0.00 0.00 77 1012.7
20260901201751 90 212 4.0 5.0 0.00 0.00 0.00 75 1012.8
20260901201250 89 112 2.0 2.0 0.00 0.00 0.00 77 1012.7
20260901200744 91 174 2.0 2.0 0.00 0.00 0.00 75 1012.6
20260901200240 90 217 0.0 1.0 0.00 0.00 0.00 76 1012.6
20260901195738 90 294 0.0 2.0 0.00 0.00 0.00 75 1012.6
20260901195231 91 206 2.0 3.0 0.00 0.00 0.00 73 1012.6
20260901194727 90 162 1.0 1.0 0.00 0.00 0.00 75 1012.7
20260901194216 90 237 1.0 2.0 0.00 0.00 0.00 74 1012.8
20260901193713 91 199 2.0 2.0 0.00 0.00 0.00 73 1012.8
20260901193212 92 158 2.0 2.0 0.00 0.00 0.00 73 1012.7
20260901192707 91 72 1.0 1.0 0.00 0.00 0.00 74 1012.8
20260901192202 91 210 2.0 2.0 0.00 0.00 0.00 73 1012.8
20260901191658 92 230 1.0 1.0 0.00 0.00 0.00 73 1012.9
20260901191154 89 112 1.0 2.0 0.00 0.00 0.00 77 1012.9
20260901190650 90 248 2.0 2.0 0.00 0.00 0.00 76 1013.0
20260901190148 88 126 1.0 2.0 0.00 0.00 0.00 78 1013.2
20260901185647 88 175 1.0 2.0 0.00 0.00 0.00 78 1013.2
20260901185145 88 225 1.0 1.0 0.00 0.00 0.00 78 1013.3
20260901184642 88 152 1.0 1.0 0.00 0.00 0.00 78 1013.1
20260901184137 88 216 1.0 2.0 0.00 0.00 0.00 80 1013.2
20260901183632 88 155 1.0 1.0 0.00 0.00 0.00 79 1013.0
20260901183127 88 145 1.0 1.0 0.00 0.00 0.00 80 1012.9
20260901182623 87 127 0.0 1.0 0.00 0.00 0.00 80 1012.8
20260901182122 88 136 0.0 1.0 0.00 0.00 0.00 79 1013.1
20260901181617 89 196 3.0 3.0 0.00 0.00 0.00 77 1013.1
20260901181116 90 29 2.0 2.0 0.00 0.00 0.00 76 1013.2
20260901180616 90 222 1.0 2.0 0.00 0.00 0.00 77 1013.4
20260901180110 89 176 0.0 1.0 0.00 0.00 0.00 77 1013.5
20260901175609 91 186 2.0 3.0 0.00 0.00 0.00 75 1013.4
20260901175104 91 142 0.0 0.0 0.00 0.00 0.00 74 1013.4
20260901174559 90 180 3.0 3.0 0.00 0.00 0.00 75 1013.5
20260901174055 89 227 0.0 1.0 0.00 0.00 0.00 77 1013.5
20260901173549 89 191 2.0 2.0 0.00 0.00 0.00 78 1013.2
20260901173046 89 140 1.0 1.0 0.00 0.00 0.00 76 1013.4
20260901172541 90 166 3.0 5.0 0.00 0.00 0.00 76 1013.4
20260901172039 88 124 1.0 1.0 0.00 0.00 0.00 78 1013.4
20260901171539 88 142 0.0 1.0 0.00 0.00 0.00 78 1013.5
20260901171038 87 190 2.0 2.0 0.00 0.00 0.00 79 1013.2
20260901170537 86 127 2.0 3.0 0.00 0.00 0.00 80 1013.3
20260901170033 86 255 4.0 5.0 0.00 0.00 0.00 80 1013.3
20260901165532 87 221 5.0 8.0 0.00 0.00 0.00 78 1013.3
20260901165028 89 208 2.0 2.0 0.00 0.00 0.00 77 1013.3
20260901164523 89 149 2.0 2.0 0.00 0.00 0.00 77 1013.3
20260901164018 88 212 3.0 5.0 0.00 0.00 0.00 78 1013.3
20260901163514 89 217 3.0 5.0 0.00 0.00 0.00 76 1013.3